QPF
0.06 0.07 0.06 0.06 0.04 0.04 0.06 0.08 0.07 0.06 0.04 0.03 0.03 0.02 0.05 0.04 0.04 0.06 0.06 0.05 0.03 0.05 0.06 0.07 0.07 0.06 0.04 0.03 0.04 0.07 0.10 0.12 0.14 0.11 0.06 0.06 0.05 0.04 0.04 0.05 0.04 0.03 0.01
0.06 0.06 0.05 0.07 0.05 0.05 0.06 0.07 0.06 0.05 0.05 0.05 0.05 0.04 0.09 0.09 0.06 0.06 0.08 0.07 0.05 0.05 0.06 0.07 0.07 0.07 0.06 0.05 0.04 0.06 0.11 0.14 0.17 0.13 0.08 0.06 0.06 0.06 0.05 0.06 0.03 0.03 0.02
0.05 0.06 0.05 0.06 0.05 0.04 0.04 0.05 0.06 0.06 0.06 0.06 0.07 0.07 0.12 0.14 0.09 0.09 0.11 0.11 0.10 0.08 0.07 0.07 0.08 0.08 0.08 0.07 0.07 0.08 0.15 0.21 0.22 0.16 0.09 0.06 0.06 0.07 0.07 0.05 0.03 0.03 0.03
0.06 0.08 0.06 0.06 0.06 0.04 0.04 0.07 0.09 0.08 0.09 0.09 0.10 0.09 0.13 0.15 0.15 0.14 0.14 0.15 0.16 0.14 0.11 0.08 0.07 0.07 0.09 0.10 0.11 0.14 0.20 0.27 0.23 0.16 0.08 0.06 0.07 0.07 0.06 0.04 0.02 0.02 0.02
0.06 0.07 0.08 0.07 0.06 0.06 0.05 0.04 0.09 0.09 0.10 0.10 0.07 0.07 0.11 0.13 0.15 0.13 0.14 0.17 0.18 0.18 0.16 0.13 0.09 0.08 0.09 0.10 0.15 0.19 0.26 0.30 0.27 0.17 0.09 0.07 0.06 0.05 0.04 0.04 0.03 0.02 0.02
0.04 0.05 0.07 0.06 0.07 0.08 0.09 0.09 0.12 0.11 0.11 0.10 0.07 0.08 0.10 0.10 0.10 0.09 0.11 0.15 0.17 0.15 0.16 0.16 0.15 0.12 0.10 0.11 0.18 0.22 0.33 0.32 0.27 0.18 0.12 0.09 0.07 0.05 0.04 0.04 0.04 0.02 0.01
0.02 0.04 0.06 0.07 0.07 0.09 0.10 0.11 0.13 0.14 0.12 0.12 0.13 0.13 0.09 0.10 0.09 0.08 0.09 0.11 0.13 0.12 0.14 0.19 0.19 0.17 0.17 0.15 0.23 0.26 0.33 0.31 0.23 0.17 0.11 0.10 0.08 0.06 0.05 0.04 0.04 0.03 0.02
0.02 0.02 0.05 0.08 0.08 0.10 0.10 0.11 0.13 0.16 0.14 0.15 0.16 0.17 0.14 0.15 0.13 0.09 0.09 0.09 0.10 0.10 0.10 0.12 0.14 0.18 0.25 0.27 0.27 0.23 0.25 0.25 0.20 0.15 0.11 0.11 0.08 0.07 0.05 0.05 0.04 0.04 0.04
0.04 0.03 0.04 0.05 0.07 0.08 0.09 0.11 0.12 0.14 0.15 0.14 0.13 0.16 0.18 0.19 0.17 0.13 0.12 0.12 0.12 0.12 0.11 0.13 0.11 0.13 0.20 0.25 0.24 0.19 0.15 0.15 0.14 0.13 0.11 0.09 0.07 0.06 0.05 0.04 0.04 0.06 0.07
0.02 0.04 0.04 0.05 0.06 0.07 0.08 0.08 0.10 0.12 0.14 0.13 0.12 0.13 0.14 0.17 0.17 0.15 0.15 0.12 0.13 0.12 0.12 0.11 0.12 0.14 0.16 0.18 0.17 0.14 0.11 0.09 0.08 0.08 0.08 0.08 0.06 0.05 0.05 0.05 0.06 0.08 0.09
0.01 0.02 0.04 0.06 0.05 0.05 0.06 0.07 0.10 0.09 0.11 0.11 0.12 0.13 0.13 0.14 0.13 0.14 0.16 0.14 0.13 0.10 0.10 0.10 0.13 0.16 0.16 0.16 0.17 0.14 0.11 0.07 0.05 0.06 0.06 0.06 0.06 0.06 0.07 0.07 0.09 0.09 0.11
0.02 0.01 0.02 0.06 0.06 0.06 0.06 0.06 0.07 0.08 0.10 0.10 0.10 0.10 0.11 0.12 0.12 0.13 0.17 0.18 0.16 0.12 0.12 0.11 0.13 0.13 0.14 0.13 0.13 0.13 0.10 0.09 0.06 0.04 0.05 0.05 0.04 0.04 0.06 0.09 0.13 0.13 0.13
0.02 0.03 0.04 0.06 0.07 0.08 0.07 0.08 0.09 0.09 0.09 0.09 0.08 0.09 0.09 0.11 0.13 0.14 0.18 0.17 0.16 0.12 0.13 0.12 0.11 0.09 0.10 0.10 0.08 0.06 0.04 0.03 0.02 0.02 0.02 0.02 0.03 0.03 0.04 0.06 0.09 0.12 0.13
0.03 0.02 0.03 0.06 0.09 0.09 0.09 0.11 0.11 0.11 0.12 0.10 0.07 0.09 0.09 0.09 0.10 0.12 0.16 0.17 0.17 0.15 0.15 0.13 0.10 0.09 0.08 0.07 0.06 0.03 0.03 0.02 0.01 0.01 0.02 0.03 0.03 0.03 0.02 0.02 0.04 0.04 0.05
0.02 0.02 0.03 0.04 0.07 0.10 0.12 0.11 0.11 0.11 0.11 0.10 0.10 0.09 0.08 0.09 0.09 0.09 0.12 0.15 0.16 0.17 0.17 0.17 0.12 0.09 0.08 0.06 0.06 0.05 0.05 0.03 0.02 0.01 0.01 0.01 0.01 0.01 0.01 0.02 0.03 0.03 0.03
0.02 0.03 0.03 0.03 0.05 0.07 0.08 0.08 0.10 0.12 0.11 0.10 0.10 0.10 0.09 0.08 0.11 0.10 0.12 0.14 0.15 0.19 0.19 0.19 0.15 0.12 0.10 0.09 0.08 0.07 0.06 0.04 0.03 0.02 0.01 0.01 0.01 0.01 0.01 0.01 0.02 0.03 0.04
0.02 0.03 0.04 0.04 0.05 0.06 0.07 0.08 0.08 0.09 0.09 0.11 0.11 0.10 0.11 0.11 0.12 0.13 0.14 0.15 0.17 0.20 0.21 0.19 0.16 0.16 0.17 0.16 0.11 0.06 0.04 0.03 0.03 0.03 0.02 0.01 0.02 0.01 0.01 0.01 0.01 0.02 0.04
0.02 0.02 0.03 0.03 0.04 0.04 0.05 0.06 0.06 0.06 0.08 0.09 0.09 0.11 0.13 0.13 0.12 0.10 0.12 0.15 0.17 0.17 0.17 0.16 0.16 0.15 0.13 0.13 0.14 0.10 0.06 0.03 0.02 0.04 0.03 0.03 0.02 0.02 0.01 0.01 0.01 0.02 0.04
0.02 0.01 0.01 0.03 0.03 0.04 0.05 0.05 0.04 0.05 0.06 0.07 0.08 0.09 0.11 0.11 0.10 0.10 0.10 0.11 0.13 0.13 0.14 0.15 0.13 0.12 0.09 0.08 0.08 0.08 0.06 0.05 0.03 0.03 0.04 0.04 0.03 0.02 0.01 0.01 0.02 0.03 0.04
0.02 0.02 0.01 0.02 0.02 0.02 0.03 0.03 0.03 0.03 0.04 0.05 0.06 0.08 0.09 0.09 0.10 0.11 0.10 0.10 0.10 0.10 0.11 0.11 0.10 0.10 0.08 0.06 0.06 0.06 0.05 0.05 0.04 0.04 0.06 0.06 0.05 0.03 0.02 0.01 0.01 0.02 0.02
0.01 0.01 0.01 0.01 0.01 0.02 0.02 0.02 0.03 0.03 0.05 0.06 0.06 0.07 0.07 0.08 0.10 0.10 0.09 0.08 0.08 0.07 0.07 0.08 0.09 0.08 0.06 0.06 0.05 0.05 0.05 0.04 0.05 0.05 0.06 0.07 0.07 0.06 0.05 0.05 0.05 0.04 0.03
0.01 0.01 0.01 0.01 0.02 0.02 0.01 0.01 0.02 0.04 0.05 0.06 0.06 0.05 0.04 0.06 0.05 0.05 0.05 0.05 0.05 0.06 0.07 0.07 0.06 0.05 0.05 0.04 0.04 0.04 0.04 0.05 0.05 0.06 0.07 0.06 0.05 0.05 0.04 0.03 0.03 0.02 0.02
0.02 0.02 0.01 0.02 0.02 0.03 0.01 0.01 0.01 0.02 0.04 0.05 0.06 0.06 0.04 0.03 0.03 0.04 0.04 0.03 0.04 0.04 0.05 0.07 0.06 0.06 0.05 0.03 0.03 0.04 0.04 0.04 0.04 0.05 0.05 0.04 0.05 0.04 0.04 0.03 0.02 0.02 0.02
0.03 0.02 0.02 0.03 0.03 0.02 0.01 0.01 0.01 0.01 0.02 0.02 0.04 0.05 0.05 0.04 0.03 0.03 0.03 0.04 0.04 0.04 0.05 0.07 0.07 0.06 0.05 0.03 0.03 0.03 0.03 0.04 0.04 0.04 0.05 0.05 0.04 0.04 0.03 0.03 0.03 0.03 0.02
0.02 0.02 0.02 0.03 0.03 0.02 0.01 0.02 0.02 0.03 0.03 0.02 0.02 0.02 0.03 0.03 0.03 0.03 0.04 0.04 0.03 0.04 0.05 0.04 0.04 0.04 0.04 0.03 0.03 0.04 0.04 0.04 0.03 0.03 0.04 0.04 0.04 0.05 0.03 0.03 0.03 0.03 0.03
0.03 0.03 0.03 0.04 0.04 0.03 0.03 0.03 0.03 0.03 0.03 0.03 0.03 0.02 0.02 0.02 0.03 0.04 0.04 0.05 0.05 0.05 0.05 0.04 0.02 0.02 0.02 0.02 0.01 0.01 0.01 0.02 0.02 0.03 0.03 0.03 0.04 0.04 0.03 0.02 0.02 0.02 0.02
MSLP
1014.19 1014.45 1014.64 1014.76 1014.86 1014.95 1015.07 1015.20 1015.33 1015.43 1015.50 1015.52 1015.53 1015.55 1015.65 1015.85 1016.18 1016.65 1017.22 1017.83 1018.42 1018.94 1019.33 1019.60 1019.75 1019.82 1019.87 1019.94 1020.05 1020.22 1020.43 1020.65 1020.87 1021.06 1021.22 1021.35 1021.47 1021.59 1021.73 1021.90 1022.08 1022.27 1022.44
1014.13 1014.38 1014.56 1014.68 1014.78 1014.89 1015.02 1015.18 1015.34 1015.49 1015.61 1015.68 1015.72 1015.76 1015.83 1015.98 1016.22 1016.58 1017.03 1017.54 1018.05 1018.53 1018.93 1019.25 1019.49 1019.66 1019.81 1019.95 1020.12 1020.31 1020.52 1020.72 1020.92 1021.09 1021.24 1021.37 1021.49 1021.62 1021.76 1021.93 1022.10 1022.28 1022.45
1014.06 1014.31 1014.49 1014.62 1014.74 1014.88 1015.04 1015.24 1015.45 1015.64 1015.80 1015.91 1015.96 1015.99 1016.02 1016.08 1016.21 1016.44 1016.75 1017.13 1017.55 1017.98 1018.39 1018.75 1019.07 1019.35 1019.60 1019.84 1020.07 1020.30 1020.52 1020.73 1020.92 1021.08 1021.23 1021.36 1021.48 1021.61 1021.76 1021.92 1022.08 1022.24 1022.40
1013.98 1014.21 1014.39 1014.55 1014.70 1014.88 1015.09 1015.33 1015.58 1015.82 1016.01 1016.13 1016.19 1016.19 1016.17 1016.14 1016.17 1016.26 1016.43 1016.69 1017.01 1017.38 1017.77 1018.17 1018.55 1018.92 1019.26 1019.58 1019.88 1020.16 1020.41 1020.63 1020.83 1020.99 1021.14 1021.28 1021.41 1021.55 1021.70 1021.84 1021.99 1022.14 1022.27
1013.85 1014.07 1014.26 1014.44 1014.64 1014.86 1015.11 1015.39 1015.68 1015.94 1016.15 1016.29 1016.35 1016.33 1016.26 1016.18 1016.11 1016.09 1016.15 1016.30 1016.53 1016.84 1017.20 1017.60 1018.02 1018.44 1018.84 1019.22 1019.57 1019.88 1020.16 1020.40 1020.61 1020.80 1020.96 1021.12 1021.26 1021.41 1021.55 1021.69 1021.82 1021.95 1022.06
1013.68 1013.88 1014.07 1014.28 1014.51 1014.77 1015.07 1015.38 1015.69 1015.97 1016.19 1016.34 1016.40 1016.38 1016.30 1016.18 1016.07 1015.99 1015.98 1016.05 1016.21 1016.45 1016.77 1017.14 1017.55 1017.98 1018.40 1018.80 1019.16 1019.49 1019.79 1020.05 1020.27 1020.48 1020.67 1020.85 1021.02 1021.18 1021.33 1021.46 1021.57 1021.68 1021.77
1013.47 1013.64 1013.84 1014.06 1014.32 1014.61 1014.93 1015.26 1015.58 1015.86 1016.09 1016.25 1016.33 1016.33 1016.28 1016.18 1016.07 1015.98 1015.95 1015.98 1016.08 1016.28 1016.54 1016.86 1017.23 1017.62 1018.01 1018.38 1018.73 1019.05 1019.34 1019.60 1019.84 1020.07 1020.29 1020.50 1020.69 1020.87 1021.03 1021.16 1021.27 1021.35 1021.43
1013.24 1013.38 1013.57 1013.80 1014.07 1014.38 1014.71 1015.04 1015.35 1015.63 1015.86 1016.04 1016.15 1016.19 1016.19 1016.15 1016.10 1016.06 1016.04 1016.07 1016.16 1016.32 1016.53 1016.79 1017.09 1017.41 1017.73 1018.04 1018.34 1018.62 1018.88 1019.13 1019.37 1019.61 1019.86 1020.09 1020.31 1020.52 1020.69 1020.83 1020.94 1021.03 1021.11
1013.01 1013.12 1013.30 1013.53 1013.80 1014.11 1014.43 1014.74 1015.03 1015.30 1015.52 1015.71 1015.85 1015.95 1016.03 1016.08 1016.12 1016.15 1016.20 1016.28 1016.38 1016.52 1016.70 1016.91 1017.13 1017.37 1017.61 1017.84 1018.06 1018.27 1018.49 1018.71 1018.94 1019.18 1019.43 1019.69 1019.94 1020.16 1020.36 1020.52 1020.65 1020.76 1020.86
1012.79 1012.88 1013.04 1013.27 1013.53 1013.82 1014.12 1014.40 1014.65 1014.89 1015.09 1015.28 1015.45 1015.61 1015.76 1015.90 1016.05 1016.19 1016.33 1016.48 1016.63 1016.80 1016.97 1017.14 1017.32 1017.49 1017.65 1017.80 1017.94 1018.09 1018.24 1018.41 1018.61 1018.84 1019.09 1019.36 1019.62 1019.87 1020.10 1020.29 1020.45 1020.59 1020.73
1012.60 1012.67 1012.82 1013.03 1013.27 1013.54 1013.79 1014.03 1014.24 1014.43 1014.60 1014.77 1014.94 1015.14 1015.35 1015.58 1015.82 1016.07 1016.32 1016.56 1016.80 1017.02 1017.23 1017.42 1017.58 1017.72 1017.84 1017.93 1018.01 1018.09 1018.18 1018.30 1018.46 1018.66 1018.89 1019.15 1019.43 1019.71 1019.96 1020.19 1020.40 1020.59 1020.77
1012.40 1012.46 1012.60 1012.79 1013.02 1013.25 1013.47 1013.65 1013.80 1013.93 1014.05 1014.18 1014.34 1014.54 1014.78 1015.06 1015.38 1015.72 1016.08 1016.43 1016.77 1017.09 1017.39 1017.64 1017.86 1018.02 1018.14 1018.22 1018.27 1018.31 1018.35 1018.41 1018.52 1018.68 1018.88 1019.13 1019.41 1019.71 1019.99 1020.27 1020.52 1020.76 1021.01
1012.18 1012.24 1012.37 1012.55 1012.75 1012.95 1013.12 1013.25 1013.34 1013.40 1013.45 1013.53 1013.64 1013.81 1014.05 1014.35 1014.72 1015.13 1015.58 1016.04 1016.51 1016.96 1017.38 1017.76 1018.08 1018.33 1018.51 1018.63 1018.69 1018.71 1018.72 1018.74 1018.80 1018.92 1019.09 1019.32 1019.60 1019.90 1020.22 1020.53 1020.84 1021.13 1021.42
1011.92 1011.99 1012.12 1012.28 1012.46 1012.63 1012.75 1012.83 1012.85 1012.84 1012.83 1012.83 1012.88 1012.99 1013.19 1013.48 1013.86 1014.32 1014.84 1015.41 1016.01 1016.61 1017.20 1017.74 1018.21 1018.60 1018.90 1019.10 1019.21 1019.25 1019.26 1019.26 1019.29 1019.37 1019.51 1019.72 1019.99 1020.30 1020.64 1020.99 1021.34 1021.67 1022.00
1011.64 1011.72 1011.84 1011.99 1012.15 1012.28 1012.36 1012.39 1012.36 1012.29 1012.20 1012.12 1012.10 1012.14 1012.28 1012.53 1012.89 1013.36 1013.94 1014.60 1015.32 1016.08 1016.84 1017.57 1018.24 1018.80 1019.25 1019.57 1019.77 1019.87 1019.91 1019.91 1019.92 1019.98 1020.10 1020.30 1020.57 1020.89 1021.25 1021.62 1021.99 1022.35 1022.70
1011.35 1011.43 1011.55 1011.69 1011.83 1011.93 1011.99 1011.97 1011.90 1011.77 1011.61 1011.47 1011.36 1011.33 1011.39 1011.58 1011.90 1012.37 1012.98 1013.71 1014.54 1015.44 1016.37 1017.29 1018.15 1018.90 1019.52 1019.98 1020.30 1020.49 1020.58 1020.61 1020.64 1020.69 1020.81 1021.01 1021.28 1021.61 1021.98 1022.37 1022.75 1023.12 1023.46
1011.10 1011.19 1011.30 1011.43 1011.55 1011.63 1011.66 1011.61 1011.50 1011.33 1011.13 1010.92 1010.74 1010.64 1010.63 1010.75 1011.02 1011.47 1012.08 1012.85 1013.75 1014.76 1015.84 1016.92 1017.95 1018.88 1019.66 1020.28 1020.72 1021.01 1021.17 1021.26 1021.32 1021.41 1021.54 1021.75 1022.04 1022.39 1022.77 1023.17 1023.55 1023.91 1024.22
1010.94 1011.03 1011.14 1011.26 1011.36 1011.42 1011.42 1011.35 1011.22 1011.02 1010.78 1010.53 1010.30 1010.13 1010.06 1010.12 1010.34 1010.74 1011.33 1012.11 1013.05 1014.13 1015.30 1016.50 1017.66 1018.73 1019.65 1020.40 1020.96 1021.36 1021.61 1021.77 1021.90 1022.03 1022.21 1022.45 1022.76 1023.13 1023.53 1023.93 1024.30 1024.64 1024.92
1010.88 1010.98 1011.09 1011.19 1011.28 1011.32 1011.31 1011.22 1011.06 1010.85 1010.59 1010.31 1010.05 1009.85 1009.73 1009.73 1009.90 1010.25 1010.80 1011.55 1012.50 1013.60 1014.81 1016.07 1017.31 1018.46 1019.48 1020.33 1021.00 1021.48 1021.83 1022.08 1022.27 1022.47 1022.71 1023.00 1023.35 1023.75 1024.16 1024.57 1024.93 1025.25 1025.50
1010.93 1011.04 1011.15 1011.25 1011.32 1011.34 1011.31 1011.21 1011.04 1010.82 1010.56 1010.27 1010.00 1009.78 1009.63 1009.59 1009.71 1010.01 1010.51 1011.22 1012.12 1013.19 1014.38 1015.64 1016.90 1018.09 1019.16 1020.07 1020.80 1021.37 1021.80 1022.12 1022.40 1022.68 1022.98 1023.33 1023.73 1024.16 1024.60 1025.01 1025.38 1025.67 1025.90
1011.04 1011.17 1011.29 1011.39 1011.45 1011.46 1011.41 1011.30 1011.13 1010.91 1010.65 1010.38 1010.12 1009.89 1009.73 1009.68 1009.76 1010.01 1010.45 1011.09 1011.92 1012.93 1014.06 1015.27 1016.49 1017.65 1018.72 1019.64 1020.41 1021.02 1021.51 1021.91 1022.27 1022.61 1022.99 1023.40 1023.85 1024.33 1024.79 1025.22 1025.59 1025.88 1026.10
1011.17 1011.32 1011.46 1011.56 1011.61 1011.61 1011.55 1011.44 1011.28 1011.07 1010.84 1010.59 1010.35 1010.15 1010.00 1009.94 1010.00 1010.21 1010.60 1011.16 1011.91 1012.81 1013.85 1014.96 1016.10 1017.20 1018.21 1019.11 1019.87 1020.50 1021.03 1021.48 1021.89 1022.30 1022.74 1023.22 1023.72 1024.23 1024.73 1025.18 1025.57 1025.87 1026.09
1011.24 1011.42 1011.58 1011.68 1011.74 1011.74 1011.68 1011.57 1011.42 1011.24 1011.05 1010.85 1010.66 1010.49 1010.38 1010.34 1010.39 1010.58 1010.91 1011.40 1012.06 1012.86 1013.77 1014.76 1015.78 1016.78 1017.70 1018.53 1019.26 1019.87 1020.40 1020.88 1021.33 1021.79 1022.28 1022.81 1023.35 1023.91 1024.44 1024.92 1025.33 1025.65 1025.89
1011.20 1011.42 1011.59 1011.71 1011.77 1011.78 1011.73 1011.64 1011.52 1011.39 1011.25 1011.10 1010.98 1010.87 1010.81 1010.80 1010.88 1011.05 1011.35 1011.78 1012.35 1013.04 1013.83 1014.69 1015.58 1016.44 1017.26 1018.00 1018.66 1019.23 1019.74 1020.21 1020.68 1021.17 1021.69 1022.25 1022.83 1023.41 1023.97 1024.48 1024.91 1025.26 1025.52
1011.03 1011.28 1011.47 1011.60 1011.68 1011.70 1011.67 1011.62 1011.55 1011.47 1011.40 1011.33 1011.28 1011.25 1011.25 1011.30 1011.40 1011.59 1011.87 1012.25 1012.75 1013.34 1014.01 1014.74 1015.49 1016.23 1016.93 1017.56 1018.13 1018.64 1019.11 1019.57 1020.03 1020.52 1021.06 1021.64 1022.24 1022.84 1023.42 1023.95 1024.40 1024.77 1025.05
1010.74 1011.00 1011.21 1011.36 1011.45 1011.49 1011.51 1011.50 1011.49 1011.49 1011.49 1011.51 1011.55 1011.60 1011.67 1011.78 1011.92 1012.13 1012.40 1012.75 1013.19 1013.70 1014.28 1014.89 1015.52 1016.13 1016.71 1017.24 1017.73 1018.17 1018.59 1019.01 1019.45 1019.94 1020.48 1021.06 1021.66 1022.27 1022.86 1023.39 1023.85 1024.22 1024.51
Thickness
5764 5764 5763 5764 5764 5764 5764 5764 5764 5765 5765 5765 5766 5766 5766 5765 5763 5761 5757 5755 5752 5750 5748 5746 5744 5742 5740 5738 5736 5735 5733 5731 5729 5727 5725 5724 5723 5722 5721 5719 5718 5717 5715
5765 5764 5763 5764 5764 5764 5764 5764 5764 5765 5764 5765 5765 5766 5766 5765 5764 5761 5758 5755 5753 5751 5749 5747 5745 5743 5741 5739 5737 5735 5733 5731 5729 5727 5726 5725 5724 5722 5721 5719 5718 5717 5715
5766 5765 5764 5764 5764 5765 5765 5765 5765 5765 5764 5764 5764 5765 5765 5765 5764 5762 5759 5756 5754 5752 5750 5749 5747 5745 5743 5741 5738 5736 5734 5732 5730 5728 5726 5725 5724 5722 5721 5719 5718 5716 5715
5767 5766 5766 5765 5765 5766 5766 5766 5764 5763 5763 5762 5762 5764 5764 5764 5764 5762 5761 5758 5756 5754 5752 5750 5748 5746 5745 5742 5740 5738 5736 5734 5731 5729 5727 5726 5724 5723 5721 5719 5718 5716 5715
5769 5768 5767 5766 5766 5767 5767 5767 5765 5764 5761 5761 5761 5762 5763 5763 5763 5763 5762 5760 5758 5756 5754 5751 5749 5748 5746 5743 5741 5739 5737 5734 5732 5730 5728 5726 5725 5723 5721 5720 5718 5717 5715
5769 5769 5767 5767 5767 5766 5766 5766 5764 5764 5763 5762 5762 5762 5762 5763 5763 5762 5761 5760 5759 5757 5755 5754 5751 5748 5746 5744 5742 5739 5737 5735 5733 5730 5728 5727 5725 5723 5722 5720 5719 5717 5716
5771 5770 5769 5768 5767 5765 5765 5765 5764 5762 5762 5763 5759 5756 5759 5762 5762 5761 5761 5760 5759 5758 5756 5754 5752 5750 5747 5744 5742 5740 5738 5735 5733 5731 5728 5727 5725 5724 5722 5721 5719 5718 5716
5772 5772 5769 5768 5767 5766 5765 5765 5763 5761 5762 5763 5757 5751 5747 5750 5755 5760 5759 5758 5758 5757 5756 5755 5752 5750 5748 5745 5742 5740 5738 5735 5732 5730 5728 5726 5725 5723 5721 5720 5719 5717 5716
5774 5772 5771 5769 5768 5767 5764 5764 5764 5761 5758 5761 5761 5754 5745 5740 5746 5753 5756 5756 5756 5755 5755 5754 5752 5749 5747 5745 5742 5738 5736 5733 5732 5730 5728 5726 5724 5722 5721 5720 5718 5717 5716
5775 5774 5772 5770 5768 5768 5766 5765 5765 5763 5760 5756 5759 5760 5758 5753 5745 5742 5748 5753 5754 5753 5752 5753 5751 5748 5746 5743 5740 5737 5735 5732 5730 5729 5727 5725 5724 5722 5720 5719 5718 5717 5715
5776 5775 5773 5771 5769 5768 5767 5766 5765 5763 5761 5758 5757 5758 5757 5756 5754 5746 5741 5745 5748 5750 5750 5750 5748 5746 5744 5741 5738 5736 5733 5731 5729 5727 5725 5724 5722 5721 5720 5718 5717 5716 5715
5776 5775 5774 5772 5770 5769 5767 5766 5765 5763 5761 5760 5759 5758 5756 5753 5751 5749 5743 5742 5741 5744 5747 5747 5745 5743 5741 5738 5735 5733 5731 5729 5727 5725 5723 5722 5721 5719 5718 5717 5716 5714 5713
5774 5774 5774 5772 5771 5770 5768 5766 5764 5762 5761 5760 5758 5758 5758 5756 5756 5753 5747 5743 5741 5741 5742 5742 5742 5740 5738 5735 5732 5730 5728 5726 5724 5721 5720 5719 5718 5717 5715 5714 5713 5711 5710
5776 5775 5774 5772 5771 5770 5769 5767 5764 5763 5762 5760 5759 5758 5756 5756 5757 5755 5750 5744 5738 5736 5736 5736 5737 5737 5735 5732 5729 5726 5723 5721 5720 5718 5717 5715 5714 5713 5711 5710 5709 5707 5706
5778 5776 5774 5772 5770 5769 5767 5766 5763 5762 5761 5759 5758 5757 5756 5756 5756 5755 5753 5749 5740 5730 5728 5731 5731 5732 5731 5728 5725 5722 5719 5717 5715 5714 5712 5712 5710 5709 5707 5706 5704 5702 5700
5777 5775 5772 5770 5769 5767 5766 5764 5762 5761 5760 5758 5757 5755 5755 5754 5754 5753 5751 5749 5746 5738 5729 5729 5729 5729 5727 5725 5721 5718 5715 5713 5711 5709 5708 5707 5706 5704 5702 5701 5699 5697 5695
5776 5774 5771 5769 5767 5766 5765 5763 5761 5759 5757 5756 5756 5754 5752 5752 5750 5749 5748 5746 5743 5739 5729 5726 5727 5725 5722 5719 5716 5713 5711 5709 5706 5704 5703 5701 5700 5699 5697 5696 5694 5692 5689
5775 5773 5771 5768 5766 5764 5763 5761 5759 5758 5756 5753 5752 5751 5749 5750 5747 5746 5744 5742 5740 5737 5731 5723 5721 5719 5717 5715 5711 5709 5706 5704 5701 5699 5697 5695 5694 5693 5691 5689 5687 5685 5683
5774 5771 5769 5766 5764 5762 5761 5759 5758 5756 5754 5752 5750 5748 5746 5745 5743 5741 5740 5738 5736 5735 5731 5724 5718 5715 5712 5710 5707 5704 5701 5699 5697 5694 5691 5689 5687 5686 5684 5682 5680 5678 5676
5772 5769 5767 5765 5763 5761 5759 5757 5756 5754 5752 5750 5748 5745 5743 5741 5739 5737 5736 5734 5732 5729 5725 5720 5715 5711 5708 5706 5703 5699 5696 5694 5692 5689 5686 5683 5680 5678 5677 5675 5673 5670 5668
5770 5767 5765 5762 5761 5759 5755 5753 5752 5752 5749 5746 5744 5742 5740 5737 5735 5734 5732 5729 5727 5723 5719 5715 5710 5707 5703 5700 5697 5696 5692 5689 5687 5685 5681 5678 5675 5672 5670 5667 5665 5663 5661
5767 5764 5761 5758 5756 5754 5751 5749 5748 5747 5745 5742 5739 5738 5736 5733 5731 5728 5726 5724 5723 5719 5714 5710 5706 5703 5699 5697 5695 5693 5689 5685 5679 5679 5676 5672 5670 5667 5664 5661 5659 5656 5654
5762 5760 5757 5754 5750 5747 5746 5745 5743 5742 5740 5737 5735 5733 5732 5729 5727 5724 5720 5718 5716 5714 5711 5708 5702 5699 5697 5695 5692 5688 5684 5680 5676 5673 5670 5666 5665 5661 5659 5656 5653 5650 5647
5758 5755 5753 5750 5747 5744 5741 5740 5738 5737 5735 5732 5730 5728 5725 5723 5721 5718 5716 5712 5709 5707 5706 5702 5700 5697 5695 5692 5689 5685 5680 5675 5671 5668 5665 5659 5658 5655 5653 5649 5646 5643 5639
5754 5751 5749 5746 5743 5739 5736 5735 5733 5732 5729 5726 5724 5721 5719 5716 5713 5712 5710 5706 5703 5700 5699 5698 5695 5692 5690 5687 5684 5679 5673 5668 5663 5660 5659 5654 5651 5648 5645 5642 5638 5635 5632
5750 5747 5744 5742 5739 5735 5731 5729 5726 5726 5722 5720 5717 5714 5711 5708 5706 5705 5703 5700 5696 5694 5692 5690 5687 5685 5683 5680 5677 5673 5669 5664 5659 5654 5653 5649 5645 5642 5637 5635 5632 5627 5623